Location: Unspecified
(0.0000°N, 0.0000°E)
Time: 07:50:29
(UTC+00:00)

N. Korean satellite - Pass Details

Date: 22 June 2017
Orbit: 459 x 517 km, 97.2° (Epoch: 16 October)

Event Time Altitude Azimuth Distance (km) Brightness Sun altitude
Rises 18:40:19 0° 172° (S) 2,642 10.0 -8.7°
Reaches altitude 10° 18:42:25 10° 174° (S) 1,751 9.1 -9.2°
Maximum altitude 18:46:12 74° 259° (W) 539 6.9 -10.1°
Drops below altitude 10° 18:49:55 10° 344° (NNW) 1,728 9.9 -10.9°
Sets 18:52:00 0° 346° (NNW) 2,603 10.8 -11.4°
